Date String (YYYY-MM-DD hh:mm:ss) UTC,Instrument flags,absolute air pressure of the measurement (hPa),sample flow rate (lpm),inlet stack bypass flow (lpm),air temperature of the measurement (°C),ambient temperature measured by the external sensor (°C),aerosol sample conditioner tube jacket temperature (°C),OPC LED temperature (°C),internal box temperature (°C),relative humidity of the measurement (%),span deviation,mass concentration of particles derived from Lorenz-Mie calculation of OPC scattering (μg/m³),mass concentration of particles derived from Lorenz-Mie calculation of OPC scattering (μg/m³),mass concentration of particles derived from Lorenz-Mie calculation of OPC scattering (μg/m³)
DateTimeUTC,F1_M11,P_M11,Q1_M11,Q2_M11,T1_M11,T2_M11,T3_M11,T4_M11,T5_M11,U1_M11,ZSPAN_M11,X2_M11,X0_M11,X1_M11
2023-11-24 05:00:00,SystemResetWarning,0833.3,5.01,000.00,019.0,018.1,000.0,027.3,020.1,17.0,0000.0,0004.55,0011.22,0003.87
2023-11-24 05:01:00,SystemResetWarning,0833.4,4.99,000.00,019.0,018.1,000.0,027.3,020.1,17.0,0000.0,0004.54,0011.01,0003.85
2023-11-24 05:02:00,SystemResetWarning,0833.3,5.00,000.00,019.0,018.1,000.0,027.3,020.1,17.0,0000.0,0004.55,0010.73,0003.84
2023-11-24 05:03:00,SystemResetWarning,0833.3,5.00,000.00,018.9,018.1,000.0,027.3,020.1,16.9,0000.0,0004.55,0010.68,0003.83
2023-11-24 05:04:00,SystemResetWarning,0833.3,5.00,000.00,018.9,018.1,000.0,027.3,020.1,16.9,0000.0,0004.57,0010.78,0003.82
2023-11-24 05:05:00,SystemResetWarning,0833.3,5.01,000.00,018.9,018.1,000.0,027.3,020.1,16.9,0000.0,0004.55,0010.74,0003.81
2023-11-24 05:06:00,SystemResetWarning,0833.3,5.00,000.00,018.9,018.1,000.0,027.3,020.1,16.9,0000.0,0004.58,0010.72,0003.82
2023-11-24 05:07:00,SystemResetWarning,0833.3,5.01,000.00,018.9,018.0,000.0,027.3,020.0,16.9,0000.0,0004.63,0009.86,0003.82
2023-11-24 05:08:00,SystemResetWarning,0833.3,5.00,000.00,018.9,018.0,000.0,027.3,020.0,16.8,0000.0,0004.63,0009.83,0003.82
2023-11-24 05:09:00,SystemResetWarning,0833.3,4.99,000.00,018.9,018.0,000.0,027.3,020.1,16.8,0000.0,0004.60,0009.73,0003.83
2023-11-24 05:10:00,SystemResetWarning,0833.3,5.00,000.00,018.9,018.0,000.0,027.3,020.1,16.7,0000.0,0004.59,0009.51,0003.83
2023-11-24 05:11:00,SystemResetWarning,0833.2,4.99,000.00,018.9,018.0,000.0,027.3,020.0,16.6,0000.0,0004.57,0009.46,0003.83
2023-11-24 05:12:00,SystemResetWarning,0833.2,5.00,000.00,018.9,018.0,000.0,027.3,020.0,16.5,0000.0,0004.59,0009.57,0003.82
2023-11-24 05:13:00,SystemResetWarning,0833.2,5.00,000.00,018.9,018.0,000.0,027.2,020.0,16.5,0000.0,0004.57,0009.48,0003.80
2023-11-24 05:14:00,SystemResetWarning,0833.2,5.00,000.00,018.9,018.0,000.0,027.2,020.0,16.5,0000.0,0004.56,0009.47,0003.80
2023-11-24 05:15:00,SystemResetWarning,0833.2,5.00,000.00,018.9,018.0,000.0,027.2,020.0,16.5,0000.0,0004.61,0009.49,0003.82
2023-11-24 05:16:00,SystemResetWarning,0833.2,5.00,000.00,018.9,018.0,000.0,027.2,020.0,16.5,0000.0,0004.63,0009.51,0003.81
2023-11-24 05:17:00,SystemResetWarning,0833.3,4.99,000.00,018.9,018.0,000.0,027.2,020.0,16.4,0000.0,0004.62,0009.61,0003.78
2023-11-24 05:18:00,SystemResetWarning,0833.3,5.00,000.00,018.9,018.0,000.0,027.2,020.0,16.4,0000.0,0004.57,0009.97,0003.74
2023-11-24 05:19:00,SystemResetWarning,0833.3,5.01,000.00,018.8,018.0,000.0,027.2,020.0,16.4,0000.0,0004.50,0009.96,0003.71
2023-11-24 05:20:00,SystemResetWarning,0833.3,5.01,000.00,018.9,018.0,000.0,027.2,020.1,16.4,0000.0,0004.49,0009.97,0003.69
2023-11-24 05:21:00,SystemResetWarning,0833.3,5.01,000.00,018.8,018.0,000.0,027.2,020.0,16.4,0000.0,0004.49,0010.10,0003.66
2023-11-24 05:22:00,SystemResetWarning,0833.3,5.00,000.00,018.8,018.0,000.0,027.2,020.0,16.4,0000.0,0004.47,0010.53,0003.62
2023-11-24 05:23:00,SystemResetWarning,0833.3,4.98,000.00,018.8,018.0,000.0,027.2,020.0,16.4,0000.0,0004.42,0010.43,0003.61
2023-11-24 05:24:00,SystemResetWarning,0833.3,5.00,000.00,018.8,017.9,000.0,027.2,020.0,16.3,0000.0,0004.41,0010.88,0003.59
2023-11-24 05:25:00,SystemResetWarning,0833.4,5.01,000.00,018.8,017.9,000.0,027.2,020.0,16.3,0000.0,0004.38,0010.95,0003.57
2023-11-24 05:26:00,SystemResetWarning,0833.4,5.00,000.00,018.8,017.9,000.0,027.2,020.0,16.2,0000.0,0004.27,0010.72,0003.54
2023-11-24 05:27:00,SystemResetWarning,0833.4,4.99,000.00,018.8,017.9,000.0,027.2,020.0,16.2,0000.0,0004.21,0010.73,0003.53
2023-11-24 05:28:00,SystemResetWarning,0833.4,4.99,000.00,018.8,017.9,000.0,027.2,020.0,16.2,0000.0,0004.18,0010.41,0003.54
2023-11-24 05:29:00,SystemResetWarning,0833.4,5.01,000.00,018.8,017.9,000.0,027.2,020.0,16.2,0000.0,0004.16,0010.31,0003.54
2023-11-24 05:30:00,SystemResetWarning,0833.4,5.01,000.00,018.8,017.9,000.0,027.2,020.0,16.2,0000.0,0004.18,0010.49,0003.54
2023-11-24 05:31:00,SystemResetWarning,0833.4,5.00,000.00,018.8,017.9,000.0,027.2,020.0,16.2,0000.0,0004.22,0010.82,0003.53
2023-11-24 05:32:00,SystemResetWarning,0833.4,4.99,000.00,018.8,017.9,000.0,027.2,020.0,16.3,0000.0,0004.21,0011.40,0003.52
2023-11-24 05:33:00,SystemResetWarning,0833.5,5.00,000.00,018.8,017.9,000.0,027.2,020.0,16.2,0000.0,0004.20,0010.76,0003.51
2023-11-24 05:34:00,SystemResetWarning,0833.4,5.01,000.00,018.8,017.9,000.0,027.2,020.0,16.2,0000.0,0004.22,0010.79,0003.50
2023-11-24 05:35:00,SystemResetWarning,0833.4,5.01,000.00,018.8,017.9,000.0,027.2,020.0,16.2,0000.0,0004.17,0010.45,0003.47
2023-11-24 05:36:00,SystemResetWarning,0833.5,5.00,000.00,018.8,017.9,000.0,027.2,020.0,16.2,0000.0,0004.14,0010.16,0003.46
2023-11-24 05:37:00,SystemResetWarning,0833.5,5.00,000.00,018.8,017.9,000.0,027.2,020.0,16.2,0000.0,0004.18,0010.03,0003.44
2023-11-24 05:38:00,SystemResetWarning,0833.5,4.99,000.00,018.8,017.9,000.0,027.2,020.0,16.2,0000.0,0004.19,0009.51,0003.42
2023-11-24 05:39:00,SystemResetWarning,0833.5,5.00,000.00,018.8,017.9,000.0,027.2,020.0,16.2,0000.0,0004.16,0009.37,0003.40
2023-11-24 05:40:00,SystemResetWarning,0833.5,5.00,000.00,018.8,017.9,000.0,027.2,020.0,16.3,0000.0,0004.14,0009.08,0003.39
2023-11-24 05:41:00,SystemResetWarning,0833.5,5.00,000.00,018.8,017.9,000.0,027.2,020.0,16.3,0000.0,0004.13,0008.75,0003.38
2023-11-24 05:42:00,SystemResetWarning,0833.5,5.00,000.00,018.8,017.9,000.0,027.2,020.0,16.4,0000.0,0004.06,0008.69,0003.37
2023-11-24 05:43:00,SystemResetWarning,0833.5,5.01,000.00,018.8,017.9,000.0,027.2,020.0,16.3,0000.0,0004.06,0008.12,0003.36
2023-11-24 05:44:00,SystemResetWarning,0833.5,5.01,000.00,018.8,017.9,000.0,027.2,020.0,16.3,0000.0,0004.05,0008.05,0003.36
2023-11-24 05:45:00,SystemResetWarning,0833.5,5.00,000.00,018.8,017.8,000.0,027.2,020.0,16.2,0000.0,0004.01,0008.17,0003.36
2023-11-24 05:46:00,SystemResetWarning,0833.6,5.00,000.00,018.8,017.8,000.0,027.2,020.0,16.2,0000.0,0004.02,0008.23,0003.36
2023-11-24 05:47:00,SystemResetWarning,0833.6,5.00,000.00,018.8,017.8,000.0,027.2,020.0,16.2,0000.0,0004.05,0008.46,0003.36
2023-11-24 05:48:00,SystemResetWarning,0833.6,5.00,000.00,018.8,017.8,000.0,027.2,020.0,16.1,0000.0,0004.01,0009.48,0003.35
2023-11-24 05:49:00,SystemResetWarning,0833.7,4.99,000.00,018.8,017.8,000.0,027.2,020.0,16.1,0000.0,0003.98,0010.50,0003.35
2023-11-24 05:50:00,SystemResetWarning,0833.7,5.00,000.00,018.8,017.8,000.0,027.2,020.0,16.1,0000.0,0003.99,0010.98,0003.33
2023-11-24 05:51:00,SystemResetWarning,0833.6,5.00,000.00,018.8,017.8,000.0,027.2,020.0,16.1,0000.0,0003.97,0011.38,0003.33
2023-11-24 05:52:00,SystemResetWarning,0833.7,5.00,000.00,018.8,017.7,000.0,027.2,020.3,16.0,0000.0,0003.92,0011.22,0003.31
2023-11-24 05:53:00,SystemResetWarning,0833.7,5.01,000.00,018.9,018.3,000.0,027.2,020.7,16.0,0000.0,0003.94,0011.19,0003.30
2023-11-24 05:54:00,SystemResetWarning,0833.7,5.00,000.00,019.0,018.9,000.0,027.2,020.9,15.8,0000.0,0003.91,0011.54,0003.29
2023-11-24 05:55:00,SystemResetWarning,0833.7,4.98,000.00,019.1,018.9,000.0,027.2,020.6,15.8,0000.0,0003.88,0011.46,0003.28
2023-11-24 05:56:00,SystemResetWarning,0833.7,5.00,000.00,019.1,018.8,000.0,027.2,020.4,15.8,0000.0,0003.83,0011.15,0003.27
2023-11-24 05:57:00,SystemResetWarning,0833.7,5.02,000.00,019.1,018.7,000.0,027.3,020.4,15.8,0000.0,0003.81,0011.04,0003.25
2023-11-24 05:58:00,SystemResetWarning,0833.7,5.01,000.00,019.1,018.6,000.0,027.3,020.3,15.8,0000.0,0003.78,0010.78,0003.24
2023-11-24 05:59:00,SystemResetWarning,0833.7,4.99,000.00,019.0,018.5,000.0,027.3,020.2,15.7,0000.0,0003.79,0009.77,0003.24
